TimeIST,TemperatureF,Dew PointF,Humidity,Sea Level PressureIn,VisibilityMPH,Wind Direction,Wind SpeedMPH,Gust SpeedMPH,PrecipitationIn,Events,Conditions,WindDirDegrees,DateUTC
12:00 AM,59.0,42.8,55,30.01,1.2,Calm,Calm,-,N/A,,Smoke,0,2012-11-24 18:30:00
1:00 AM,66.2,39.2,37,29.98,1.2,NW,4.6,-,N/A,,Smoke,310,2012-11-24 19:30:00
2:30 AM,64,43,34,29.95,1,NW,4.6,,,,Smoke,320,2012-11-24 21:00:00
2:30 AM,64.4,37.4,37,29.98,1.2,Variable,5.8,-,N/A,,Smoke,0,2012-11-24 21:00:00
3:00 AM,66.2,35.6,32,29.98,1.2,Variable,6.9,-,N/A,,Smoke,0,2012-11-24 21:30:00
4:00 AM,60.8,35.6,39,29.98,1.6,Calm,Calm,-,N/A,,Haze,0,2012-11-24 22:30:00
5:00 AM,59.0,39.2,48,29.98,1.6,Calm,Calm,-,N/A,,Haze,0,2012-11-24 23:30:00
5:30 AM,58,41,42,29.96,1,Calm,Calm,,,,Haze,,2012-11-25 00:00:00
6:00 AM,59.0,39.2,48,29.98,1.6,Calm,Calm,-,N/A,,Haze,0,2012-11-25 00:30:00
6:30 AM,57.2,39.2,51,30.01,1.6,Calm,Calm,-,N/A,,Haze,0,2012-11-25 01:00:00
7:00 AM,55.4,41.0,58,30.01,1.6,Calm,Calm,-,N/A,,Haze,0,2012-11-25 01:30:00
7:30 AM,57.2,42.8,59,30.01,1.2,Calm,Calm,-,N/A,,Smoke,0,2012-11-25 02:00:00
8:00 AM,60.8,44.6,55,30.04,1.0,Calm,Calm,-,N/A,,Smoke,0,2012-11-25 02:30:00
8:30 AM,67,45,34,30.00,1,Calm,Calm,,,,Smoke,,2012-11-25 03:00:00
9:00 AM,68.0,44.6,43,30.04,1.2,Calm,Calm,-,N/A,,Smoke,0,2012-11-25 03:30:00
9:30 AM,69.8,42.8,38,30.06,1.2,Variable,2.3,-,N/A,,Smoke,0,2012-11-25 04:00:00
10:00 AM,73.4,42.8,33,30.06,1.6,Variable,3.5,-,N/A,,Haze,0,2012-11-25 04:30:00
11:30 AM,80,44,17,29.99,1,,2.3,,,,Haze,,2012-11-25 06:00:00
11:30 AM,78.8,41.0,26,30.04,1.9,Variable,2.3,-,N/A,,Haze,0,2012-11-25 06:00:00
12:00 PM,78.8,39.2,24,30.04,2.5,Variable,2.3,-,N/A,,Haze,0,2012-11-25 06:30:00
12:30 PM,78.8,37.4,23,30.01,2.5,Variable,2.3,-,N/A,,Haze,0,2012-11-25 07:00:00
1:00 PM,78.8,37.4,23,30.01,2.5,Variable,2.3,-,N/A,,Haze,0,2012-11-25 07:30:00
2:00 PM,80.6,35.6,20,29.98,2.5,West,8.1,-,N/A,,Haze,280,2012-11-25 08:30:00
3:00 PM,80.6,35.6,20,29.95,2.5,West,11.5,-,N/A,,Haze,280,2012-11-25 09:30:00
4:00 PM,80.6,35.6,20,29.95,2.5,NW,8.1,-,N/A,,Haze,310,2012-11-25 10:30:00
5:00 PM,78.8,35.6,21,29.95,2.5,NNW,4.6,-,N/A,,Haze,330,2012-11-25 11:30:00
7:00 PM,71.6,37.4,29,29.98,1.9,Calm,Calm,-,N/A,,Haze,0,2012-11-25 13:30:00
8:00 PM,69.8,39.2,33,30.01,1.6,Calm,Calm,-,N/A,,Smoke,0,2012-11-25 14:30:00
8:30 PM,67,44,31,29.96,1,West,3.5,,,,Smoke,270,2012-11-25 15:00:00
9:00 PM,68.0,37.4,33,30.01,1.6,Calm,Calm,-,N/A,,Smoke,0,2012-11-25 15:30:00
10:00 PM,64.4,39.2,40,30.01,1.6,Calm,Calm,-,N/A,,Smoke,0,2012-11-25 16:30:00
11:00 PM,64.4,37.4,37,30.01,1.6,NNE,3.5,-,N/A,,Smoke,20,2012-11-25 17:30:00
11:30 PM,64,40,30,29.98,1,Calm,Calm,,,,Smoke,,2012-11-25 18:00:00